Location: Boca de Tacagua
(10.5333°N, 66.9833°W)
Time: 02:45:49
(UTC+00:00)

X-37B - Pass Details

Date: 30 November 2022
Orbit: 277 x 277 km, 45.0° (Epoch: 01 November)

Event Time Altitude Azimuth Distance (km) Brightness Sun altitude
Rises 23:22:02 0° 241° (WSW) 1,900 5.7 -18.9°
Reaches altitude 10° 23:24:08 10° 256° (WSW) 1,088 4.1 -19.4°
Enters shadow 23:25:53 23° 301° (WNW) 636 2.1 -19.8°
